STARLINK-36889

Last updated on Mon Mar 30 2026 00:02:05 GMT+0000 (Coordinated Universal Time)

1 68006U 26039W 26088.16668981 -.01812528 00000+0 -62997-1 0 9991 2 68006 42.9996 299.0902 0001285 269.9818 333.4348 15.32466074 6003
UTC large
Height (km)
Speed (km/s)
/
Latitude / Longitude
Inclination (degrees)
Orbital Period (minutes)
Azimuth
Elevation
Range (km)
Doppler Factor

Next 0 passes for location: London (51.5072 / 0.1276)

Sorry there are no passes over London.